Temperature
31 32 32 32 32 32 32 31 31 30 29 29 29 30 29 28 28 27 26 25 25 24 23 22 22 22 21 21 21 20 20 19 19 19 19 19 18 18 18 18 18 17 17 17
30 31 31 31 32 32 32 32 32 31 30 30 29 29 29 28 27 26 25 25 24 24 23 22 22 21 21 21 20 20 20 19 19 19 19 18 18 18 18 18 17 17 17 17
29 30 30 30 31 31 31 32 31 30 30 30 29 28 28 28 27 26 25 25 24 24 23 22 21 21 20 20 20 20 19 19 19 19 18 18 18 18 18 17 17 17 17 17
29 29 28 29 32 32 31 31 31 30 30 30 29 28 27 27 26 26 25 24 24 23 22 22 21 21 21 20 20 20 19 19 19 18 18 18 18 18 17 17 17 17 17 17
28 27 28 29 30 31 30 29 30 30 30 29 28 28 26 26 25 25 24 24 23 23 22 22 21 20 20 20 19 19 19 19 18 18 18 18 17 17 17 17 17 16 16 16
27 27 26 28 30 30 30 28 29 29 28 28 28 27 26 25 25 24 23 23 22 22 22 21 21 20 20 19 19 19 18 18 18 18 18 18 17 17 17 17 16 16 16 16
27 26 27 29 29 30 27 27 28 28 27 27 26 25 24 24 24 23 23 22 22 21 21 20 20 20 19 19 18 18 18 18 18 18 18 17 17 17 16 16 16 16 16 16
27 26 26 28 29 27 26 26 27 26 26 26 25 24 23 23 22 22 22 21 21 21 20 20 19 19 19 18 18 18 18 17 17 17 17 17 17 16 16 16 16 16 16 16
27 26 26 26 26 26 26 25 25 25 25 25 24 24 23 22 21 21 20 20 20 20 19 19 19 19 18 18 18 17 17 17 17 16 16 16 16 16 16 16 16 15 15 15
25 26 26 26 25 25 25 24 25 24 24 24 23 23 22 21 20 20 19 19 19 19 18 18 18 18 18 17 17 17 16 16 16 16 16 16 16 16 16 16 15 15 15 15
24 25 25 25 24 24 24 24 24 23 23 23 22 22 21 20 19 19 19 18 18 18 17 17 17 17 17 17 17 16 16 16 16 16 16 16 16 16 15 15 15 15 15 15
24 24 24 24 23 23 23 23 23 23 22 22 21 21 20 19 19 18 18 18 17 17 17 17 17 17 17 17 16 16 15 15 15 15 15 15 15 15 15 15 15 15 15 15
23 23 23 23 23 23 23 23 22 22 21 21 20 20 19 19 18 18 17 17 17 17 16 16 16 16 16 16 16 16 15 15 15 15 15 15 15 15 15 14 14 14 14 14
21 21 22 22 22 22 22 21 21 21 20 20 19 19 18 18 17 17 17 17 16 16 16 16 16 16 16 15 15 15 15 15 15 15 15 15 15 14 14 14 14 14 14 14
20 21 21 21 21 21 21 20 20 20 19 19 19 18 18 17 17 17 16 16 16 16 16 16 15 15 15 15 15 15 15 15 15 15 14 14 14 14 14 14 14 14 14 13
20 20 20 20 20 20 20 20 19 19 18 18 18 17 17 17 16 16 16 16 15 15 15 15 15 14 14 14 14 14 15 15 15 14 14 14 14 14 14 14 14 14 13 13
19 19 19 19 19 19 19 19 18 18 18 17 17 16 16 16 16 16 15 15 15 15 15 15 14 14 14 14 14 14 14 14 14 14 14 14 14 14 14 14 14 13 13 13
18 18 18 18 18 18 18 18 18 17 17 17 16 16 16 15 15 15 15 15 15 15 14 14 14 14 14 14 14 14 14 14 14 14 14 14 14 14 14 14 13 13 13 13
17 17 17 17 17 17 17 17 17 16 16 16 16 15 15 15 15 14 14 14 14 14 14 14 14 14 14 14 14 14 14 14 14 14 14 14 14 13 13 13 13 13 13 12
16 16 16 16 16 16 16 16 16 16 15 15 15 15 14 14 14 14 14 14 14 14 14 13 13 13 13 13 13 13 13 13 13 13 13 13 13 13 13 13 13 12 12 12
15 15 15 15 15 15 15 15 15 15 15 15 15 14 14 14 14 14 14 13 13 13 13 13 13 13 13 13 13 13 13 13 13 13 13 13 13 13 12 12 12 12 12 11
14 14 15 15 15 14 14 14 14 14 14 14 14 14 14 14 13 13 13 13 13 13 13 13 13 13 13 13 13 13 13 13 13 12 12 12 12 12 12 12 12 11 11 11
14 14 14 14 14 14 14 14 14 14 14 14 13 13 13 13 13 13 13 13 13 13 13 13 13 13 13 12 12 12 12 12 12 12 12 12 12 12 12 11 11 11 11 11
13 14 14 14 14 14 13 13 13 13 13 13 13 13 13 13 13 13 13 13 13 13 12 12 12 12 12 12 12 12 12 12 11 11 11 11 11 11 11 11 11 11 11 10
13 13 13 13 13 13 13 13 13 13 13 13 13 13 13 13 13 13 12 12 12 12 12 12 12 12 12 11 11 11 11 11 11 11 11 11 11 11 11 11 10 10 10 10
13 13 13 13 13 13 13 13 13 13 13 13 13 13 13 13 12 12 12 12 12 12 11 11 11 11 11 11 11 11 11 11 11 11 11 11 11 10 10 10 10 10 10 10
13 13 13 13 13 13 13 13 13 13 13 13 13 12 12 12 12 12 12 12 12 11 11 11 11 11 11 11 11 11 11 10 10 10 10 10 10 10 10 10 10 10 9 9
Wind_Speed
15 13 12 12 14 14 14 12 11 7 6 5 2 4 6 6 6 6 5 5 5 5 5 5 5 5 5 5 5 6 7 8 7 6 5 5 5 4 4 4 4 3 3 3
16 15 14 15 15 14 13 11 11 8 4 3 2 3 4 5 6 5 5 6 6 6 6 6 5 5 5 4 4 5 5 6 6 6 6 5 5 5 4 3 3 3 3 3
14 14 14 16 13 12 10 9 7 6 3 2 2 3 2 2 3 4 4 5 6 7 7 7 6 5 5 5 5 5 5 5 5 5 5 5 5 4 4 4 3 3 3 2
12 13 15 11 9 10 9 6 5 4 2 2 2 4 3 2 2 2 3 5 5 6 7 7 7 6 5 6 5 5 5 5 4 4 4 4 3 3 4 3 3 3 2 3
11 13 12 9 8 7 7 5 5 4 2 0 2 2 3 3 3 2 1 2 4 5 7 7 7 7 6 6 5 5 5 5 5 4 4 4 4 4 3 3 3 3 2 3
11 12 12 9 6 5 6 5 1 0 0 1 0 2 0 2 3 2 2 2 2 3 4 5 6 6 6 6 5 5 4 4 4 4 4 4 4 3 3 3 3 3 3 2
13 12 9 5 3 3 6 2 2 3 2 2 1 1 3 3 3 2 3 3 2 2 3 3 5 5 6 5 5 4 3 3 3 3 4 4 4 4 4 4 4 4 3 3
11 12 8 2 3 2 1 3 3 3 3 3 3 4 4 3 3 2 3 3 3 3 3 3 3 4 5 4 3 3 3 3 3 3 4 4 3 3 4 5 5 5 4 4
6 4 3 6 5 4 4 3 2 2 3 3 4 4 4 3 3 3 3 3 3 3 3 3 3 3 3 3 3 3 3 3 3 3 2 2 3 4 4 4 4 4 3 3
5 3 2 2 4 4 4 2 2 3 3 2 3 3 3 3 3 3 3 2 2 2 2 2 2 2 2 3 3 3 3 2 2 3 3 2 2 3 3 2 2 1 2 2
5 2 1 2 1 2 3 3 4 3 3 3 3 3 2 2 2 2 2 1 2 2 2 2 2 1 2 2 3 3 3 2 3 3 2 2 2 1 2 1 2 3 2 2
4 2 2 1 1 2 2 2 2 3 3 3 2 2 2 2 1 1 1 1 2 2 1 1 2 1 2 2 2 3 4 3 3 3 3 3 3 1 3 1 2 3 3 2
3 2 2 2 2 2 2 2 2 2 2 2 3 2 1 1 1 1 1 1 1 1 1 2 2 2 1 2 2 3 3 3 3 3 3 4 3 3 2 0 1 1 2 3
4 3 2 3 3 3 3 3 3 2 2 2 2 2 1 1 1 1 1 1 1 1 2 2 2 2 2 2 2 3 4 4 4 3 3 4 4 3 3 3 3 2 2 5
3 3 2 3 3 3 2 2 2 2 3 3 3 2 1 1 1 1 1 1 1 1 1 1 2 2 2 2 2 3 3 3 3 3 4 3 3 3 3 3 3 3 2 2
4 3 3 3 3 2 2 2 2 2 2 2 2 2 2 1 1 1 0 1 1 1 0 1 1 2 2 2 2 3 3 3 3 3 3 3 3 4 3 3 3 3 3 3
3 3 3 3 3 3 2 2 1 1 1 1 1 1 1 1 1 1 1 2 1 1 1 1 1 1 2 2 3 4 3 3 4 3 3 2 3 3 3 2 2 2 2 3
3 4 4 5 4 3 3 2 1 0 0 1 1 1 0 1 1 2 2 2 1 0 0 0 1 1 2 2 2 3 3 2 3 3 2 2 2 3 2 2 2 2 2 2
3 4 5 4 4 3 2 2 1 0 0 0 0 0 0 1 1 1 2 2 1 1 1 2 2 2 2 2 2 3 3 3 2 2 2 2 2 2 2 2 2 2 2 2
3 4 4 3 2 2 1 1 1 1 1 1 1 0 1 1 2 1 1 1 1 2 2 1 1 2 1 0 2 3 3 3 2 2 1 1 2 1 2 2 2 2 1 1
2 3 3 2 1 1 2 2 1 1 1 1 1 1 2 2 2 2 2 2 1 2 2 2 2 1 1 1 3 3 3 2 1 1 1 1 1 1 1 1 1 1 1 1
2 3 3 2 1 1 2 2 1 1 1 1 1 2 2 2 3 2 1 2 2 1 2 2 2 1 1 2 2 2 2 1 1 0 1 1 1 1 1 1 1 2 1 1
3 3 3 2 1 1 1 1 1 1 1 1 2 2 2 2 3 3 2 2 2 1 2 2 1 1 1 2 2 2 1 1 0 1 1 1 1 1 1 2 2 2 1 1
3 2 2 2 1 1 1 1 1 0 1 1 1 1 2 2 2 2 2 1 0 1 1 1 2 2 3 2 1 1 1 1 1 1 1 1 1 1 1 1 2 1 1 1
2 2 2 1 1 1 1 1 1 1 1 1 1 1 1 1 1 1 1 1 1 2 1 1 3 3 3 2 1 1 0 0 0 1 1 1 1 2 2 2 1 1 1 1
2 2 2 2 2 2 2 1 1 1 1 1 1 1 1 0 1 1 1 1 1 2 1 1 2 2 1 1 1 0 0 1 1 2 1 1 2 2 1 1 1 1 1 1
2 2 2 2 2 2 1 1 0 0 1 1 1 1 1 1 1 1 0 1 1 1 1 1 1 1 1 1 0 0 0 0 0 0 0 1 1 1 1 1 1 1 1 1
Wind_Direction
259 260 262 258 253 245 241 248 257 249 229 206 203 138 127 133 128 129 143 151 143 136 133 131 131 134 140 151 151 157 162 169 178 178 173 175 175 176 181 193 200 191 205 220
258 256 260 264 261 255 251 251 251 254 256 147 139 112 117 134 137 147 169 170 162 155 146 144 145 147 152 154 149 151 157 164 167 173 174 180 179 178 182 196 198 203 215 224
259 255 254 252 258 259 253 261 256 252 236 198 142 104 130 127 135 166 178 175 169 163 155 152 154 157 162 155 153 156 160 161 166 171 171 176 183 176 181 195 202 210 222 231
258 262 254 250 255 250 250 252 260 258 212 171 120 112 85 97 131 155 179 178 167 166 163 164 163 161 161 160 161 167 165 165 165 174 176 176 181 192 194 196 205 211 213 225
254 254 252 257 263 258 252 247 252 247 247 185 94 77 59 54 72 61 51 158 161 173 172 165 164 160 162 164 167 169 171 176 176 181 188 191 197 204 198 195 209 213 201 205
247 254 253 259 261 265 261 236 289 102 20 356 52 252 346 66 72 51 80 105 139 150 152 153 154 159 165 170 173 182 187 185 184 186 196 201 196 194 197 200 206 207 203 200
240 246 251 264 258 259 249 260 58 88 64 44 71 33 62 56 57 61 100 101 105 112 138 148 152 161 168 168 182 182 172 178 184 188 200 200 197 199 207 208 209 210 211 205
240 243 247 284 244 223 115 76 59 58 51 56 74 86 91 74 63 59 75 87 83 78 84 117 142 156 164 166 169 162 170 179 186 198 221 207 193 206 217 213 216 214 208 208
244 237 69 48 60 76 92 74 43 49 42 64 83 98 93 75 69 64 63 66 81 86 91 100 118 135 157 151 148 157 173 189 197 203 213 196 198 216 225 220 225 223 205 203
251 205 160 90 71 66 91 87 42 45 46 57 85 93 89 81 70 73 70 60 76 101 115 103 101 118 127 136 148 161 176 193 198 206 205 189 219 239 239 232 225 231 219 219
238 203 149 105 55 59 57 41 36 31 35 41 38 57 74 86 76 74 101 70 92 110 115 116 114 142 139 129 144 171 181 202 217 225 206 193 211 262 250 220 216 219 241 235
255 245 260 193 9 7 15 17 11 9 28 24 18 32 53 79 98 115 123 102 103 118 129 158 156 129 121 142 156 191 201 213 227 223 207 208 199 203 25 45 144 167 183 186
334 346 6 356 4 3 351 1 8 18 30 27 11 13 73 84 92 85 101 131 134 150 199 190 166 162 173 189 196 210 220 220 230 227 213 214 211 204 198 272 110 148 195 190
3 358 340 342 351 352 353 360 1 359 10 31 13 7 43 81 86 107 138 190 206 212 203 194 179 186 187 194 215 217 224 219 225 224 228 220 215 222 217 208 202 222 232 208
336 325 316 328 343 340 344 336 326 356 27 27 24 16 27 106 120 122 141 229 229 231 212 199 191 182 186 209 222 224 229 224 217 227 234 227 224 225 226 220 210 200 190 209
319 319 310 308 318 327 333 325 334 16 22 13 12 2 12 39 58 75 130 214 230 251 269 243 222 189 198 228 240 230 220 220 231 235 237 233 226 224 224 223 221 212 203 196
280 278 285 292 292 299 295 297 300 21 353 339 360 360 3 5 5 0 317 294 272 216 210 207 230 215 213 226 239 243 230 212 211 232 238 246 242 234 232 226 227 228 213 187
286 292 294 293 289 279 267 263 259 276 290 342 7 54 24 355 325 326 314 309 279 174 284 293 270 250 223 216 253 263 251 231 221 225 210 216 235 244 243 235 229 226 207 211
316 304 292 289 288 291 294 288 253 265 332 326 286 305 359 343 328 332 339 321 323 340 330 318 294 279 236 190 237 254 250 247 242 233 218 194 221 239 239 231 227 229 226 207
320 319 311 306 303 298 281 277 266 242 250 231 225 339 350 315 309 305 312 304 310 316 322 328 287 284 288 324 278 263 250 244 244 245 222 211 232 247 255 258 250 252 255 241
329 323 311 300 311 319 318 312 306 297 270 242 225 235 258 271 276 274 260 249 300 326 297 265 259 283 289 295 266 260 251 250 250 257 236 228 237 246 263 275 267 264 265 267
321 313 305 287 281 308 317 317 318 308 302 296 272 268 268 276 278 270 259 257 267 264 262 259 262 295 328 279 256 270 278 281 261 237 243 225 219 237 284 295 272 264 258 249
299 296 304 295 277 285 296 301 296 295 286 275 265 257 256 262 263 264 271 282 285 253 246 264 273 170 232 248 270 273 260 256 236 195 218 249 247 226 238 262 263 247 232 237
295 292 294 288 280 252 251 281 324 315 277 252 233 248 248 249 260 262 268 282 349 171 247 221 192 198 208 231 247 252 254 235 254 254 249 250 249 226 223 247 262 253 243 248
292 284 292 295 272 260 235 245 254 259 261 262 292 321 264 247 257 285 294 260 188 198 237 178 191 209 214 226 220 235 219 176 212 251 251 236 242 244 239 230 238 260 264 260
289 284 285 272 267 265 245 238 239 251 276 286 305 302 305 251 218 225 223 186 175 205 221 169 178 204 205 176 131 97 95 169 190 220 228 227 240 257 269 270 256 251 251 262
267 257 252 261 261 277 284 273 306 351 354 13 355 354 10 27 17 334 221 168 174 220 239 200 177 191 194 158 149 123 140 3 297 291 295 334 342 344 8 3 346 353 19 20
Height
1443 1439 1439 1441 1442 1441 1445 1448 1456 1456 1458 1456 1454 1454 1457 1462 1465 1469 1473 1475 1477 1480 1482 1483 1485 1487 1489 1492 1494 1496 1498 1500 1501 1502 1504 1505 1506 1507 1508 1509 1510 1511 1511 1511
1446 1440 1440 1442 1439 1437 1439 1440 1445 1447 1452 1448 1452 1454 1457 1461 1464 1468 1471 1474 1476 1479 1481 1483 1484 1486 1488 1490 1492 1494 1496 1498 1499 1500 1501 1502 1503 1504 1506 1507 1508 1508 1508 1509
1452 1443 1444 1451 1441 1438 1439 1438 1441 1450 1451 1449 1452 1456 1459 1462 1464 1466 1469 1472 1475 1477 1479 1481 1483 1484 1487 1489 1491 1492 1494 1495 1497 1498 1499 1500 1501 1502 1503 1504 1505 1505 1505 1506
1451 1452 1465 1446 1430 1432 1436 1438 1440 1443 1446 1448 1452 1455 1458 1461 1463 1466 1468 1471 1473 1475 1477 1479 1481 1483 1485 1487 1489 1490 1492 1493 1495 1496 1497 1498 1498 1499 1500 1501 1502 1502 1502 1503
1453 1458 1454 1440 1434 1434 1438 1443 1440 1443 1447 1449 1452 1455 1459 1461 1463 1466 1467 1469 1471 1473 1475 1477 1479 1481 1483 1485 1486 1488 1489 1490 1492 1493 1494 1495 1496 1497 1498 1498 1499 1499 1499 1500
1452 1460 1464 1449 1435 1434 1438 1448 1443 1444 1447 1450 1452 1458 1462 1462 1463 1465 1466 1468 1469 1471 1473 1474 1476 1478 1480 1482 1484 1485 1487 1488 1489 1490 1491 1492 1493 1494 1495 1495 1496 1496 1496 1497
1450 1456 1451 1438 1434 1437 1453 1454 1446 1446 1450 1452 1454 1459 1462 1462 1463 1465 1466 1468 1469 1470 1472 1473 1474 1476 1478 1479 1481 1483 1484 1485 1486 1487 1488 1489 1490 1491 1492 1492 1493 1493 1493 1494
1447 1455 1455 1438 1437 1443 1450 1448 1448 1450 1451 1453 1455 1458 1461 1462 1464 1465 1466 1467 1468 1469 1470 1472 1473 1474 1476 1477 1479 1480 1482 1483 1484 1484 1486 1487 1487 1488 1489 1490 1490 1490 1490 1491
1441 1447 1443 1441 1443 1446 1447 1449 1451 1451 1453 1454 1456 1459 1461 1463 1464 1465 1466 1467 1468 1469 1469 1470 1471 1473 1474 1475 1476 1478 1479 1480 1481 1482 1483 1484 1485 1485 1486 1487 1487 1488 1488 1489
1442 1441 1442 1444 1447 1448 1449 1451 1452 1453 1454 1455 1457 1459 1461 1463 1464 1465 1466 1467 1468 1468 1468 1469 1470 1471 1472 1473 1474 1476 1477 1478 1479 1480 1481 1482 1482 1483 1484 1484 1485 1485 1485 1486
1441 1441 1444 1446 1448 1449 1450 1451 1453 1454 1455 1456 1457 1459 1460 1462 1463 1465 1466 1466 1467 1467 1467 1468 1469 1470 1471 1472 1473 1474 1475 1476 1477 1478 1478 1479 1480 1480 1480 1481 1482 1482 1482 1482
1442 1443 1445 1446 1449 1450 1451 1452 1454 1454 1455 1457 1458 1459 1460 1461 1462 1463 1464 1465 1465 1466 1466 1467 1468 1468 1469 1469 1470 1471 1472 1473 1474 1475 1476 1476 1477 1477 1477 1478 1478 1479 1479 1479
1443 1444 1445 1447 1449 1450 1451 1452 1454 1455 1456 1457 1458 1459 1460 1461 1462 1462 1463 1464 1464 1464 1465 1466 1466 1467 1467 1467 1468 1469 1470 1470 1471 1472 1473 1474 1474 1474 1474 1474 1475 1475 1476 1476
1446 1447 1447 1449 1450 1451 1452 1453 1455 1455 1456 1457 1458 1459 1459 1460 1461 1461 1461 1462 1462 1463 1464 1464 1464 1464 1465 1465 1466 1466 1467 1468 1468 1469 1470 1471 1471 1472 1472 1471 1471 1472 1473 1473
1448 1448 1449 1450 1451 1452 1453 1454 1454 1455 1456 1457 1457 1458 1458 1458 1459 1459 1460 1461 1461 1462 1462 1462 1462 1462 1463 1463 1463 1464 1464 1465 1465 1466 1467 1468 1469 1469 1469 1469 1469 1469 1470 1470
1448 1449 1449 1450 1451 1452 1453 1454 1454 1455 1456 1457 1457 1458 1458 1458 1458 1458 1459 1459 1459 1459 1459 1459 1460 1460 1461 1461 1461 1461 1462 1462 1463 1463 1464 1465 1466 1466 1466 1467 1467 1467 1467 1467
1449 1449 1449 1450 1451 1451 1453 1454 1454 1455 1456 1456 1457 1457 1457 1457 1457 1457 1457 1457 1457 1457 1457 1457 1457 1458 1458 1458 1458 1459 1460 1460 1461 1461 1462 1463 1463 1464 1464 1464 1464 1464 1464 1464
1448 1448 1449 1450 1450 1451 1452 1452 1453 1454 1455 1455 1455 1456 1456 1456 1456 1456 1456 1456 1455 1456 1456 1455 1455 1455 1455 1455 1456 1457 1458 1458 1459 1459 1459 1460 1461 1461 1462 1461 1461 1462 1461 1462
1447 1447 1448 1448 1449 1450 1450 1451 1451 1452 1453 1453 1454 1454 1454 1455 1455 1455 1454 1454 1453 1453 1454 1454 1453 1452 1452 1453 1454 1455 1456 1456 1457 1457 1457 1457 1458 1458 1458 1458 1458 1459 1459 1458
1446 1447 1447 1447 1447 1448 1448 1449 1449 1450 1451 1451 1452 1452 1453 1453 1453 1453 1453 1452 1452 1452 1452 1452 1451 1450 1450 1451 1452 1453 1453 1454 1454 1455 1455 1455 1455 1456 1456 1456 1456 1456 1456 1455
1446 1446 1446 1446 1446 1446 1447 1447 1448 1448 1448 1449 1449 1450 1450 1451 1451 1451 1451 1451 1451 1451 1450 1450 1450 1449 1449 1449 1450 1451 1451 1452 1452 1452 1452 1453 1453 1453 1453 1453 1453 1453 1453 1453
1445 1445 1445 1445 1445 1445 1445 1446 1446 1446 1446 1447 1447 1448 1448 1448 1449 1449 1449 1449 1449 1449 1448 1448 1448 1448 1448 1448 1448 1449 1449 1449 1450 1450 1450 1450 1451 1451 1451 1451 1451 1451 1450 1450
1445 1445 1444 1444 1444 1444 1445 1445 1445 1445 1445 1445 1445 1445 1446 1446 1446 1446 1447 1447 1447 1446 1446 1446 1445 1446 1446 1446 1447 1447 1447 1447 1448 1448 1448 1448 1449 1449 1449 1449 1449 1449 1448 1448
1443 1443 1443 1443 1443 1444 1444 1444 1443 1443 1443 1443 1443 1443 1444 1444 1444 1444 1444 1444 1444 1444 1444 1443 1443 1444 1444 1445 1445 1445 1446 1446 1446 1446 1446 1446 1447 1447 1447 1447 1447 1447 1446 1445
1442 1442 1442 1442 1443 1443 1443 1442 1442 1442 1442 1442 1442 1442 1442 1442 1442 1442 1442 1442 1442 1442 1442 1442 1441 1442 1442 1443 1443 1443 1444 1444 1444 1444 1445 1445 1445 1445 1445 1445 1445 1444 1444 1443
1442 1441 1441 1442 1442 1441 1442 1442 1441 1441 1441 1441 1441 1441 1441 1441 1441 1441 1441 1441 1440 1441 1440 1440 1440 1440 1441 1441 1442 1442 1442 1442 1442 1443 1443 1443 1443 1443 1443 1443 1443 1442 1442 1441
1440 1440 1440 1440 1440 1441 1441 1440 1440 1440 1441 1440 1440 1440 1440 1440 1440 1440 1440 1440 1439 1440 1439 1439 1439 1439 1439 1440 1440 1440 1441 1441 1441 1441 1441 1441 1442 1442 1441 1441 1441 1440 1440 1439